Weather in Solnechnoye

Russia / Republic of Khakassia     53°41′20″N   91°10′54″E
temp.,
°C
wind,
m/s
gust,
m/s
humid.,
%
clouds,
%
prec.,
mm/h
press.,
hPa
HPBL,
m
16 april, fri
fri1601:00+3sse23936 0.0 102354
04:00+2sse22935 0.0 102221
07:00+2s239314 0.0 102185
10:00+9ssw466046 0.0 1018622
13:00+15wsw793953 0.0 10151999
16:00+14w8114926 0.0 10141464
19:00+13wsw711506 0.0 10131051
22:00+10sw6136128 0.0 1013395
17 april, sat
sat1701:00+9ssw71366100 0.0 1011363
04:00+10sw61261100 0.0 1010387
07:00+2n71186100 1.4 1014493
10:00+1n6978100 3.4 1017904
13:00+4n4658100 3.6 10181296
16:00+4nne5548100 0.0 10191447
19:00+2nne4449100 0.0 1020853
22:00+1n345799 0.0 1022774
18 april, sun
sun1801:00−1nne3470100 0.0 1023583
04:00−2sse127596 0.0 1023116
07:00−2sse2381100 0.0 1023315
10:00+1s3469100 0.0 1020748
13:00+4ssw4660100 0.0 1017979
16:00+8ssw4842100 0.0 10131889
19:00+8wsw3641100 0.0 1011199
22:00+5sw41057100 0.0 1010272
19 april, mon
mon1901:00+4s5147242 0.0 1005430
04:00+4ssw5118126 0.0 1001314
07:00+5sw7127639 0.0 1002737
10:00+5wsw1219425 0.1 10092277
13:00+5w10133028 0.1 10142093
16:00+5wnw792997 0.0 10172440
19:00+2nw8734100 0.0 10211419
22:00−2nnw574582 0.0 10241029
20 april, tue
tue2001:00−3nnw4540100 0.0 10261256
04:00−4nnw3441100 0.0 10261154
07:00−4nnw3442100 0.0 10271158
10:00−3nnw333792 0.0 10281679
13:000w242994 0.0 10262210
16:00+2nw1322100 0.0 10242527
19:00+1ne4327100 0.0 10241797
22:00−1nnw2338100 0.0 1025965